[[{"header":{"parameterUnit":"m.s-1","parameterCategory":1,"la1":30.2991,"la2":30.254,"lo1":-89.0895,"lo2":-89.0444,"dx":0.0017,"dy":0.0017,"nx":28,"ny":28,"refTime":"2022-11-16T03:00:00:Z","depth":0,"parameterNumber":2,"parameterNumberName":"U-component_of_WINDS"},"data":[0,0,0,0,0,0,0,0,0,0,0,0,0,0,0,0,0,0,0,0,0,0,0,0,0,0,0,0,0,0,0,0,0,0,0,0,0,0,0,0,0,0,0,0,0,0,0,0,0,0,0,0,0,0,0,0,0,0,0.2312,0.2312,0,0.2264,0.2264,0.2263,0.2298,0.2299,0.2301,0.2302,0.2249,0.2247,0.2244,0,0,0,0,0,0,0,0,0,0,0,0,0,0.243,0.2428,0.2312,0.2312,0.2311,0.2264,0.2264,0.2263,0.2297,0.2299,0.2301,0.2303,0.225,0.2247,0.2244,0,0,0,0,0,0,0,0,0,0,0,0,0,0.238,0.2427,0.2312,0.2323,0.2323,0.2264,0.2264,0.2263,0.2297,0.2299,0.2302,0.2304,0.2251,0.2247,0.2243,0.217,0,0,0.223,0.2228,0,0,0,0,0,0,0,0,0.2383,0.2376,0.2322,0.2322,0.2322,0.2289,0.2286,0.2232,0.2297,0.2307,0.2302,0.2305,0.2261,0.2256,0.2242,0.2168,0.2166,0.223,0.2227,0.2225,0.2224,0,0,0,0,0,0,0,0.2386,0.2378,0.2293,0.2321,0.2321,0.2329,0.2324,0.2276,0.2271,0.2306,0.2309,0.2303,0.2261,0.2246,0.2241,0.2165,0.223,0.2226,0.2223,0.2222,0.2028,0.2026,0,0,0,0,0,0,0.2389,0.2381,0.2295,0.2292,0.2359,0.2325,0.232,0.2298,0.2272,0.227,0.2301,0.2304,0.2252,0.2245,0.2239,0.215,0.2225,0.2221,0.2219,0.2031,0.2028,0.2025,0,0,0,0,0,0,0.2392,0.2381,0.2297,0.2337,0.2327,0.232,0.2295,0.2295,0.228,0.2268,0.2267,0.2286,0.2253,0.2245,0.2187,0.2149,0.2219,0.2215,0.2034,0.203,0.2026,0.1974,0,0,0,0,0,0,0.2395,0.2382,0.2355,0.2336,0.2324,0.2246,0.2293,0.2293,0.2273,0.2277,0.2253,0.2252,0.2254,0.2193,0.2183,0.2144,0.2212,0.2037,0.2032,0.2027,0.1979,0.1969,0.196,0,0,0,0,0,0.2399,0.2342,0.2353,0.2343,0.2291,0.2244,0.2237,0.2243,0.227,0.2242,0.2234,0.2252,0.2156,0.2187,0.2176,0.2135,0.2039,0.2033,0.2028,0.1983,0.1971,0.196,0,0,0,0,0,0,0.2355,0.2339,0.2352,0.2287,0.2267,0.225,0.2215,0.223,0.22,0.2205,0.2212,0.2207,0.2146,0.2136,0.2171,0.2063,0.2102,0.2093,0.2072,0.206,0.2051,0.2053,0.2209,0,0,0,0,0,0.2338,0.2302,0.2291,0.2234,0.2223,0.2221,0.2201,0.2207,0.2186,0.2177,0.2165,0.2143,0.2107,0.2084,0.205,0.1979,0.1973,0.1946,0.1936,0.1928,0.192,0.188,0.1867,0.2006,0.2006,0.2006,0,0,0.2301,0.2289,0.2265,0.2225,0.221,0.2172,0.2213,0.2171,0.2143,0.217,0.2115,0.2105,0.2081,0.2016,0.1986,0.2005,0.1881,0.1921,0.1915,0.1911,0.1872,0.1859,0.1847,0.2002,0.2002,0.2003,0,0,0.2215,0.2203,0.2154,0.2138,0.2116,0.2115,0.2103,0.2084,0.2079,0.2024,0.2044,0.201,0.1949,0.193,0.1913,0.1821,0.1836,0.181,0.1759,0.172,0.1709,0.1699,0.1664,0.1651,0.1802,0.1802,0.1802,0,0.2172,0.2116,0.2126,0.2083,0.2063,0.2089,0.2038,0.2023,0.199,0.1975,0.1998,0.1922,0.1907,0.1837,0.1814,0.1801,0.1786,0.1811,0.171,0.17,0.1691,0.1658,0.1645,0.1799,0.18,0.18,0.18,0,0.2063,0.2024,0.1987,0.1956,0.1933,0.1886,0.1888,0.1864,0.1873,0.1869,0.1812,0.1796,0.1759,0.1744,0.1752,0.1674,0.1687,0.1709,0.1747,0.1675,0.1643,0.163,0.1795,0.1796,0.1797,0.1797,0,0,0.1944,0.1921,0.1906,0.1892,0.187,0.1839,0.1794,0.1759,0.1737,0.1714,0.1674,0.1623,0.1644,0.1624,0.1631,0.1597,0.1522,0.1624,0.1623,0.1603,0.1434,0.1414,0.1399,0.1534,0.1531,0.153,0.1435,0,0.1855,0.1775,0.1784,0.1708,0.1671,0.1695,0.1656,0.1637,0.1633,0.16,0.1596,0.1558,0.159,0.1578,0.1546,0.1538,0.1488,0.1546,0.1494,0.1492,0.1496,0.1383,0.1362,0.1273,0.1423,0.1421,0.1419,0,0.1738,0.1712,0.1633,0.1616,0.1601,0.1565,0.1533,0.1503,0.1482,0.1481,0.146,0.1472,0.1425,0.1467,0.1401,0.144,0.142,0.1413,0.141,0.1403,0.1449,0.1369,0.1245,0.1231,0.14,0.1402,0.1403,0,0.1656,0.1602,0.1547,0.1534,0.1513,0.1487,0.1477,0.1459,0.1438,0.1411,0.1396,0.1364,0.1345,0.132,0.1322,0.1353,0.1254,0.1297,0.125,0.125,0.1225,0.1226,0.1093,0.1218,0.1218,0.1218,0.1219,0,0.1553,0.1503,0.1509,0.1475,0.1419,0.143,0.1374,0.1367,0.135,0.1314,0.1335,0.13,0.1308,0.1273,0.1275,0.1219,0.1211,0.1208,0.1208,0.1204,0.1204,0.1188,0.1193,0.1215,0.1216,0.1216,0.1217,0,0.145,0.1453,0.1394,0.138,0.1375,0.1334,0.1322,0.1289,0.1288,0.1242,0.1232,0.1229,0.1189,0.1191,0.1146,0.1147,0.1077,0.1086,0.1083,0.1084,0.1036,0.1039,0.0885,0.0865,0.1007,0.1005,0.1004,0,0.1382,0.1344,0.1326,0.1304,0.1293,0.1257,0.1236,0.1245,0.1222,0.1196,0.1165,0.1128,0.1098,0.1034,0.1027,0.0992,0.0999,0.0948,0.0993,0.099,0.0994,0.0995,0.099,0.0937,0.0935,0.0934,0.0933,0,0.126,0.1264,0.1233,0.1202,0.1176,0.1152,0.1131,0.1111,0.1118,0.1091,0.1051,0.1028,0.0983,0.0945,0.0912,0.0901,0.0917,0.092,0.0906,0.0899,0.0898,0.0895,0.1055,0.0922,0.0923,0.0924,0.0924,0.0925,0.1171,0.1137,0.112,0.1084,0.1069,0.1049,0.1017,0.1012,0.098,0.0944,0.0952,0.0906,0.0887,0.0845,0.0831,0.0795,0.0812,0.0794,0.0789,0.0783,0.0776,0.0907,0.0789,0.0789,0.079,0.079,0.079,0,0.1047,0.1038,0.1005,0.0974,0.0946,0.0967,0.0944,0.0919,0.0879,0.086,0.0831,0.0785,0.0748,0.074,0.0704,0.0677,0.0683,0.0667,0.0667,0.0664,0.0764,0.0777,0.0662,0.0662,0.0662,0.0662,0.0662,0.0662,0.0979,0.0924,0.0925,0.0862,0.0853,0.081,0.0794,0.0775,0.076,0.0708,0.0678,0.0673,0.0657,0.0621,0.0588,0.0587,0.0571,0.0551,0.0552,0.0644,0.0657,0.0669,0.0682,0.0548,0.0548,0.0454,0.0454,0.0453]},{"header":{"parameterUnit":"m.s-1","parameterCategory":1,"la1":30.2991,"la2":30.254,"lo1":-89.0895,"lo2":-89.0444,"dx":0.0017,"dy":0.0017,"nx":28,"ny":28,"refTime":"2022-11-16T03:00:00:Z","depth":0,"parameterNumber":3,"parameterNumberName":"V-component_of_WINDS"},"data":[0,0,0,0,0,0,0,0,0,0,0,0,0,0,0,0,0,0,0,0,0,0,0,0,0,0,0,0,0,0,0,0,0,0,0,0,0,0,0,0,0,0,0,0,0,0,0,0,0,0,0,0,0,0,0,0,0,0,-6.9404,-6.9406,0,-6.9557,-6.9559,-6.9561,-6.9452,-6.9448,-6.9443,-6.9438,-6.959,-6.9599,-6.9607,0,0,0,0,0,0,0,0,0,0,0,0,0,-6.9013,-6.902,-6.9404,-6.9406,-6.9408,-6.9557,-6.9559,-6.9561,-6.9453,-6.9447,-6.9442,-6.9436,-6.9588,-6.9598,-6.9608,0,0,0,0,0,0,0,0,0,0,0,0,0,-6.9176,-6.9023,-6.9404,-6.9372,-6.9371,-6.9557,-6.9559,-6.9562,-6.9455,-6.9447,-6.944,-6.9433,-6.9584,-6.9597,-6.9609,-6.9833,0,0,-6.9648,-6.9654,0,0,0,0,0,0,0,0,-6.9167,-6.919,-6.9375,-6.9375,-6.9374,-6.9479,-6.9477,-6.9653,-6.9456,-6.9423,-6.9438,-6.943,-6.9559,-6.9573,-6.9618,-6.984,-6.9847,-6.965,-6.9657,-6.9663,-6.9666,0,0,0,0,0,0,0,-6.9156,-6.9183,-6.9464,-6.9378,-6.9377,-6.9349,-6.9364,-6.951,-6.9529,-6.9425,-6.9418,-6.9437,-6.9557,-6.9606,-6.962,-6.9849,-6.9649,-6.9661,-6.9669,-6.9674,-7.0263,-7.027,0,0,0,0,0,0,-6.9148,-6.9174,-6.946,-6.9469,-6.925,-6.9362,-6.9379,-6.9452,-6.9527,-6.9532,-6.9443,-6.9432,-6.9587,-6.9606,-6.9625,-6.9893,-6.9663,-6.9675,-6.9682,-7.0255,-7.0264,-7.0273,0,0,0,0,0,0,-6.914,-6.9174,-6.9453,-6.932,-6.9353,-6.9376,-6.9459,-6.9459,-6.9507,-6.9541,-6.9544,-6.949,-6.9582,-6.9607,-6.9783,-6.9896,-6.9681,-6.9692,-7.0245,-7.0258,-7.0269,-7.043,0,0,0,0,0,0,-6.9129,-6.9172,-6.9259,-6.9323,-6.9361,-6.9611,-6.9466,-6.9467,-6.9531,-6.9517,-6.9586,-6.959,-6.9578,-6.9764,-6.9795,-6.991,-6.9702,-7.0235,-7.0251,-7.0265,-7.0414,-7.0445,-7.0472,0,0,0,0,0,-6.9116,-6.9297,-6.9264,-6.9299,-6.947,-6.9617,-6.9639,-6.9623,-6.954,-6.9627,-6.9648,-6.9588,-6.9879,-6.9783,-6.9817,-6.9938,-7.0228,-7.0246,-7.0264,-7.0401,-7.0439,-7.0472,0,0,0,0,0,0,-6.9244,-6.9305,-6.9269,-6.9477,-6.9543,-6.9599,-6.9708,-6.9664,-6.9754,-6.9737,-6.9712,-6.9729,-6.9913,-6.9942,-6.9834,-7.0158,-7.004,-7.0065,-7.0133,-7.0169,-7.0198,-7.0187,-6.9713,0,0,0,0,0,-6.9297,-6.9413,-6.9459,-6.9638,-6.9673,-6.9685,-6.9749,-6.9731,-6.9798,-6.9825,-6.9859,-6.9925,-7.0031,-7.0101,-7.0201,-7.0417,-7.043,-7.0517,-7.0546,-7.0569,-7.0592,-7.0709,-7.0748,-7.0332,-7.0332,-7.0331,0,0,-6.9407,-6.9454,-6.9529,-6.9665,-6.9714,-6.9834,-6.9709,-6.9841,-6.9929,-6.9844,-7.0013,-7.004,-7.0111,-7.0309,-7.0397,-7.0339,-7.071,-7.0592,-7.0611,-7.0621,-7.0731,-7.0771,-7.0806,-7.0344,-7.0342,-7.034,0,0,-6.9669,-6.9717,-6.9871,-6.9923,-7.0,-7.0007,-7.0044,-7.0107,-7.0122,-7.0291,-7.023,-7.0333,-7.0516,-7.057,-7.0621,-7.0903,-7.0851,-7.0936,-7.1088,-7.1202,-7.1235,-7.1264,-7.1364,-7.1401,-7.0958,-7.0958,-7.0959,0,-6.9795,-6.9975,-6.9955,-7.0093,-7.0154,-7.0084,-7.0239,-7.029,-7.0395,-7.0438,-7.0371,-7.06,-7.0643,-7.0852,-7.0921,-7.0965,-7.1006,-7.0928,-7.1232,-7.1261,-7.1287,-7.1383,-7.1421,-7.0968,-7.0967,-7.0966,-7.0965,0,-7.0127,-7.0252,-7.0367,-7.0473,-7.0546,-7.0692,-7.0693,-7.077,-7.0746,-7.0759,-7.0931,-7.098,-7.1089,-7.1136,-7.1113,-7.1342,-7.1304,-7.1235,-7.1116,-7.1337,-7.1427,-7.1463,-7.0982,-7.0979,-7.0976,-7.0973,0,0,-7.0475,-7.0568,-7.0611,-7.0657,-7.0737,-7.0832,-7.0973,-7.1081,-7.1148,-7.1222,-7.1339,-7.1496,-7.1433,-7.1491,-7.1473,-7.1573,-7.1793,-7.1492,-7.1493,-7.1547,-7.2049,-7.2101,-7.2144,-7.1759,-7.1766,-7.1771,-7.2043,0,-7.0742,-7.0991,-7.0978,-7.1211,-7.1326,-7.1261,-7.1383,-7.1445,-7.146,-7.1559,-7.1574,-7.1687,-7.1595,-7.163,-7.1726,-7.1747,-7.1894,-7.1726,-7.1867,-7.1872,-7.1853,-7.2191,-7.2246,-7.2501,-7.2078,-7.2084,-7.2088,0,-7.1087,-7.1175,-7.1421,-7.1482,-7.153,-7.1642,-7.1739,-7.1834,-7.1901,-7.1905,-7.1971,-7.1936,-7.2077,-7.1954,-7.2148,-7.2034,-7.209,-7.2109,-7.2119,-7.2132,-7.1995,-7.2214,-7.2581,-7.262,-7.2143,-7.2139,-7.2135,0,-7.1318,-7.1497,-7.1667,-7.1709,-7.1785,-7.1865,-7.19,-7.196,-7.2026,-7.211,-7.2152,-7.2251,-7.2305,-7.2382,-7.2374,-7.2285,-7.2571,-7.2447,-7.2578,-7.2579,-7.2642,-7.2639,-7.3025,-7.2677,-7.2677,-7.2676,-7.2675,0,-7.1618,-7.1771,-7.1772,-7.1877,-7.2045,-7.2027,-7.2194,-7.222,-7.2274,-7.2381,-7.2329,-7.2431,-7.2414,-7.2515,-7.2509,-7.2671,-7.2695,-7.2702,-7.2699,-7.2708,-7.2707,-7.2745,-7.2728,-7.2686,-7.2684,-7.2682,-7.268,0,-7.1905,-7.1912,-7.2093,-7.2151,-7.2168,-7.2291,-7.2339,-7.2437,-7.2448,-7.2585,-7.2615,-7.2632,-7.2749,-7.2748,-7.288,-7.2876,-7.3074,-7.305,-7.3053,-7.3048,-7.318,-7.3168,-7.3605,-7.3662,-7.3276,-7.328,-7.3283,0,-7.2096,-7.2213,-7.2283,-7.2353,-7.2393,-7.2505,-7.2572,-7.2557,-7.2629,-7.2714,-7.2802,-7.2914,-7.3003,-7.3191,-7.3214,-7.3315,-7.3293,-7.3439,-7.3308,-7.3313,-7.3296,-7.329,-7.3302,-7.3465,-7.347,-7.3473,-7.3476,0,-7.2436,-7.2434,-7.2533,-7.2635,-7.2717,-7.2795,-7.2868,-7.2927,-7.292,-7.3002,-7.3122,-7.3191,-7.3326,-7.3438,-7.3535,-7.3568,-7.3522,-7.3517,-7.3553,-7.3564,-7.3561,-7.3565,-7.3124,-7.3508,-7.3504,-7.3502,-7.35,-7.3499,-7.2682,-7.2782,-7.2848,-7.2961,-7.3014,-7.3083,-7.3178,-7.3202,-7.3301,-7.3412,-7.3396,-7.353,-7.3592,-7.3718,-7.376,-7.3863,-7.3811,-7.3863,-7.3876,-7.389,-7.3905,-7.3544,-7.388,-7.3879,-7.3878,-7.3878,-7.3877,0,-7.302,-7.3059,-7.3163,-7.3266,-7.3355,-7.3304,-7.3381,-7.3458,-7.3577,-7.364,-7.3729,-7.3865,-7.3973,-7.4004,-7.4108,-7.4184,-7.4165,-7.4212,-7.4206,-7.4215,-7.3944,-7.3904,-7.4225,-7.4225,-7.4225,-7.4225,-7.4225,-7.4225,-7.3206,-7.3374,-7.338,-7.3572,-7.3609,-7.3741,-7.379,-7.3852,-7.3903,-7.4059,-7.4149,-7.4169,-7.4219,-7.4326,-7.4421,-7.4428,-7.4468,-7.4524,-7.4522,-7.4269,-7.4234,-7.4201,-7.4162,-7.4533,-7.4534,-7.4784,-7.4786,-7.4788]}]]